Location: Bothwell
(42.3833°S, 147.0000°E)
Time: 20:26:16
(UTC+11:00)

BEESAT - Pass Details

Date: 01 October 2022
Orbit: 699 x 706 km, 98.5° (Epoch: 25 November)

Event Time Altitude Azimuth Distance (km) Brightness Sun altitude
Exits shadow 21:29:32 - 302° (WNW) 2,452 ? -32.8°
Reaches altitude 10° 21:31:12 10° 285° (WNW) 2,191 ? -33.1°
Maximum altitude 21:32:30 11° 269° (W) 2,127 ? -33.2°
Drops below altitude 10° 21:33:49 10° 253° (WSW) 2,201 ? -33.4°
Sets 21:38:03 0° 217° (SW) 3,135 ? -34.0°
